Miscellaneous Local Product
Issued by NWS North Platte, NE

Home | Current Version | Previous Version | Text Only | Print | Product List | Glossary On
Versions: 1 2 3 4 5 6 7 8 9 10 11 12 13 14 15 16 17 18 19 20 21 22 23 24 25 26 27 28 29 30 31 32 33 34 35 36 37 38 39 40 41 42 43 44 45 46 47 48 49 50
013
AXUS43 KLBF 190110
MISLBF


WESTERN AND NORTH CENTRAL NEBRASKA HOURLY WEATHER ROUNDUP
NATIONAL WEATHER SERVICE NORTH PLATTE NE
800 PM CDT MON SEP 18 2017

NOTE: "FAIR" INDICATES FEW OR NO CLOUDS BELOW 12,000 FEET WITH NO
SIGNIFICANT WEATHER AND/OR OBSTRUCTIONS TO VISIBILITY.

NOTE: STATIONS NOT REPORTING VARIABLES SUCH AS SKY/WEATHER OR
PRESSURE ARE PROVIDED BY RAWS AND APRS NETWORKS AND ARE NOT UNDER
NATIONAL WEATHER SERVICE QUALITY CONTROL.

...OBSERVATIONS IN AND NEAR THE EASTERN PANHANDLE OF NEBRASKA...

CITY           SKY/WX    TMP DP  RH WIND       PRES   REMARKS
PINE RIDGE     CLEAR     73  38  27 SE8       29.77F
GORDON         FAIR      71  40  33 SE8       29.80F
CHADRON        CLOUDY    70  40  33 SE8       29.75S
ALLIANCE       CLEAR     63  48  58 SE9       29.82F
SIDNEY         CLEAR     68  34  28 S9        29.88F
$$

...OBSERVATIONS IN NORTHERN NEBRASKA AND FAR SOUTHERN SOUTH DAKOTA...

CITY           SKY/WX    TMP DP  RH WIND       PRES   REMARKS
WINNER         FAIR      71  61  70 SE9       29.78F
VALENTINE      CLEAR     73  46  38 E5        29.80F
THEDFORD       CLEAR     72  57  59 S12       29.85S
AINSWORTH      CLEAR     68  60  75 S8        29.83S
O`NEILL        CLEAR     67  63  85 S6        29.84F
ORD            CLEAR     64  60  87 S3        29.85
BROKEN BOW     CLEAR     69  60  73 S8        29.87
CHAMBERS         N/A     70  63  78 W3          N/A
$$

...OBSERVATIONS IN SOUTHWEST NEBRASKA AND FAR NORTHEAST COLORADO...

CITY           SKY/WX    TMP DP  RH WIND       PRES   REMARKS
WRAY           FAIR      75  34  22 E8        29.88S
HOLYOKE        FAIR      70  37  30 SE9       29.88S
IMPERIAL       CLEAR     70  45  40 SE9       29.87
OGALLALA       CLEAR     76  43  30 SE6       29.86S
NORTH PLATTE   CLEAR     67  55  65 E7        29.85S
MCCOOK         CLEAR     73  56  54 E8        29.86S
LEXINGTON      CLEAR     70  60  69 SE3       29.88R
$$

...OBSERVATIONS IN CENTRAL LINCOLN COUNTY AREA...

CITY           SKY/WX    TMP DP  RH WIND       PRES   REMARKS
N.P. AIRPORT   CLEAR     67  55  65 E7        29.85S
N.P. SOUTHEAST   N/A     76  53  44 SE3         N/A
$$

...SOME OBSERVATIONS FROM AROUND THE REGION...

CITY           SKY/WX    TMP DP  RH WIND       PRES   REMARKS
DENVER         PTCLDY    74  25  16 E14       29.89F
LIMON            N/A    N/A N/A N/A MISG      29.95S
ASPEN          CLEAR     65  30  27 S7        30.08S
LARAMIE        CLEAR     63  25  23 SW12      29.99S
CASPER         CLOUDY    71  29  21 SW23      29.79F
CHEYENNE       CLEAR     69  29  22 S10       29.94F
SCOTTSBLUFF    CLEAR     68  51  54 E8        29.81F
GRAND ISLAND   CLEAR     69  66  90 SE5       29.87S
OMAHA          CLOUDY    73  66  78 E7        29.89R
SIOUX FALLS    PTCLDY    69  64  84 SE6       29.85R
PIERRE         CLEAR     67  54  63 SE9       29.74F
RAPID CITY     CLEAR     66  43  42 E10       29.73F
BISMARCK       MOCLDY    63  52  67 E7        29.77F
KANSAS CITY    PTCLDY    67  66  97 S7        29.92F
HILL CITY      CLEAR     77  55  46 NE5       29.85R
WICHITA        MOCLDY    79  65  62 SE8       29.88S
DODGE CITY     CLEAR     76  58  53 S7        29.88S
OKLAHOMA CITY  PTCLDY    74  66  76 SE8       29.92S
DALLAS         PTCLDY    88  65  46 SE5       29.88S HX  90
AMARILLO       CLEAR     80  60  50 S12       29.95F
$$




USA.gov is the U.S. government's official web portal to all federal, state and local government web resources and services.